Dades meteomassalio
Diari Summary for Agost 9, 2017 Units:  Metric    English   Both
« Previous Day
Next Day »
Diari Semanal Mensual Anual Personalitzat
  Maxima: Minima: Mijana:
Temperatura: 23.4 °C 15.7 °C 19.2 °C
Rosada: 11.1 °C 8.4 °C 9.7 °C
Humitat: 72 % 45 % 54 %
Velocitat del vent: 38.9 km/h 0.0 km/h 12.1 km/h
Racha vent: 38.9 km/h - -
Vent:- - WNW
Pressio: 1021.6 hPa 1016.5 hPa -
Pluja: 0.8 mm    
Historical Graphs
 
 
Tabular Data for Agost 9, 2017
Time Temperature Dew Point Pressure Wind Wind Speed Wind Gust Humidity Rainfall Rate (Hourly) solar Conditions
00:01 20.7 °C 9.0 °C 1016.8 hPa West 14.8 km/h 14.8 km/h 47 % 0.0 mm 0.0 W/m2 CLR
00:06 20.6 °C 8.9 °C 1016.8 hPa West 18.5 km/h 18.5 km/h 47 % 0.0 mm 0.0 W/m2 CLR
00:11 20.5 °C 8.8 °C 1016.8 hPa WNW 18.5 km/h 18.5 km/h 47 % 0.0 mm 0.0 W/m2 CLR
00:16 20.4 °C 8.7 °C 1016.8 hPa West 13.0 km/h 13.0 km/h 47 % 0.0 mm 0.0 W/m2 CLR
00:21 20.3 °C 8.9 °C 1016.8 hPa West 18.5 km/h 18.5 km/h 48 % 0.0 mm 0.0 W/m2 CLR
00:26 20.2 °C 8.8 °C 1016.8 hPa West 18.5 km/h 18.5 km/h 48 % 0.0 mm 0.0 W/m2 CLR
00:31 20.2 °C 9.1 °C 1016.8 hPa WNW 20.9 km/h 20.9 km/h 49 % 0.0 mm 0.0 W/m2 CLR
00:36 20.1 °C 9.1 °C 1016.8 hPa WNW 19.3 km/h 19.3 km/h 49 % 0.0 mm 0.0 W/m2 CLR
00:41 20.0 °C 9.3 °C 1016.8 hPa WNW 22.2 km/h 22.2 km/h 50 % 0.0 mm 0.0 W/m2 CLR
00:46 19.9 °C 9.2 °C 1017.2 hPa West 20.4 km/h 20.4 km/h 50 % 0.0 mm 0.0 W/m2 CLR
00:51 19.8 °C 9.4 °C 1017.2 hPa West 22.2 km/h 22.2 km/h 51 % 0.0 mm 0.0 W/m2 CLR
00:57 19.8 °C 9.3 °C 1017.2 hPa WNW 31.5 km/h 31.5 km/h 51 % 0.0 mm 0.0 W/m2 CLR
01:02 19.7 °C 9.3 °C 1017.2 hPa West 22.2 km/h 22.2 km/h 51 % 0.0 mm 0.0 W/m2 CLR
01:07 19.7 °C 9.2 °C 1017.2 hPa WNW 18.5 km/h 18.5 km/h 51 % 0.0 mm 0.0 W/m2 CLR
01:12 19.7 °C 9.2 °C 1017.2 hPa WNW 18.5 km/h 18.5 km/h 51 % 0.0 mm 0.0 W/m2 CLR
01:17 19.6 °C 9.2 °C 1017.2 hPa West 18.5 km/h 18.5 km/h 51 % 0.0 mm 0.0 W/m2 CLR
01:22 19.6 °C 9.2 °C 1017.2 hPa West 18.5 km/h 18.5 km/h 51 % 0.0 mm 0.0 W/m2 CLR
01:27 19.6 °C 9.4 °C 1017.2 hPa West 9.3 km/h 9.3 km/h 52 % 0.0 mm 0.0 W/m2 CLR
01:32 19.5 °C 9.4 °C 1017.2 hPa WSW 7.4 km/h   52 % 0.0 mm 0.0 W/m2 CLR
01:37 19.4 °C 9.3 °C 1017.2 hPa Calm     52 % 0.0 mm 0.0 W/m2 CLR
01:42 19.2 °C 9.4 °C 1017.2 hPa West 5.6 km/h 6.3 km/h 53 % 0.0 mm 0.0 W/m2 CLR
01:47 19.1 °C 9.3 °C 1017.2 hPa Calm     53 % 0.0 mm 0.0 W/m2 CLR
01:52 19.0 °C 9.5 °C 1017.2 hPa SW 5.6 km/h 5.6 km/h 54 % 0.0 mm 0.0 W/m2 CLR
01:57 18.9 °C 9.4 °C 1017.2 hPa Calm     54 % 0.0 mm 0.0 W/m2 CLR
02:02 18.8 °C 9.3 °C 1017.2 hPa SW 3.7 km/h 3.7 km/h 54 % 0.0 mm 0.0 W/m2 CLR
02:07 18.6 °C 9.4 °C 1017.2 hPa Calm     55 % 0.0 mm 0.0 W/m2 CLR
02:12 18.6 °C 9.3 °C 1017.2 hPa WSW 1.9 km/h   55 % 0.0 mm 0.0 W/m2 CLR
02:17 18.4 °C 9.5 °C 1017.2 hPa West 11.1 km/h 11.1 km/h 56 % 0.0 mm 0.0 W/m2 CLR
02:22 18.6 °C 9.6 °C 1017.2 hPa West 14.8 km/h 14.8 km/h 56 % 0.0 mm 0.0 W/m2 CLR
02:27 18.6 °C 9.7 °C 1017.2 hPa West 16.7 km/h 16.7 km/h 56 % 0.0 mm 0.0 W/m2 CLR
02:32 18.6 °C 9.6 °C 1017.2 hPa WSW 11.3 km/h 11.3 km/h 56 % 0.0 mm 0.0 W/m2 CLR
02:37 18.4 °C 9.5 °C 1017.2 hPa WSW 8.0 km/h 8.0 km/h 56 % 0.0 mm 0.0 W/m2 CLR
02:42 18.3 °C 9.3 °C 1017.2 hPa West 5.6 km/h 5.6 km/h 56 % 0.0 mm 0.0 W/m2 CLR
02:47 18.2 °C 9.2 °C 1017.2 hPa WSW 7.4 km/h 7.4 km/h 56 % 0.0 mm 0.0 W/m2 CLR
02:52 18.2 °C 9.2 °C 1016.8 hPa Calm     56 % 0.0 mm 0.0 W/m2 CLR
02:57 18.2 °C 9.3 °C 1016.8 hPa Calm     56 % 0.0 mm 0.0 W/m2 CLR
03:02 18.2 °C 9.2 °C 1017.2 hPa Calm     56 % 0.0 mm 0.0 W/m2 CLR
03:07 18.1 °C 9.2 °C 1016.8 hPa WSW 18.5 km/h 18.5 km/h 56 % 0.0 mm 0.0 W/m2 CLR
03:12 18.1 °C 9.2 °C 1016.8 hPa West 14.8 km/h 14.8 km/h 56 % 0.0 mm 0.0 W/m2 CLR
03:17 18.1 °C 9.1 °C 1017.2 hPa Calm     56 % 0.0 mm 0.0 W/m2 CLR
03:22 18.0 °C 9.1 °C 1016.8 hPa WSW 9.3 km/h 9.3 km/h 56 % 0.0 mm 0.0 W/m2 CLR
03:27 17.9 °C 9.1 °C 1016.8 hPa Calm     56 % 0.0 mm 0.0 W/m2 CLR
03:32 17.8 °C 8.9 °C 1016.8 hPa Calm     56 % 0.0 mm 0.0 W/m2 CLR
03:38 17.7 °C 8.8 °C 1016.8 hPa Calm     56 % 0.0 mm 0.0 W/m2 CLR
03:43 17.7 °C 8.8 °C 1016.8 hPa WSW 5.6 km/h 5.6 km/h 56 % 0.0 mm 0.0 W/m2 CLR
03:48 17.6 °C 8.7 °C 1016.8 hPa West 6.4 km/h   56 % 0.0 mm 0.0 W/m2 CLR
03:53 17.6 °C 8.7 °C 1016.8 hPa Calm     56 % 0.0 mm 0.0 W/m2 CLR
03:58 17.6 °C 8.7 °C 1016.8 hPa Calm   1.0 km/h 56 % 0.0 mm 0.0 W/m2 CLR
04:03 17.5 °C 8.6 °C 1016.8 hPa Calm     56 % 0.0 mm 0.0 W/m2 CLR
04:08 17.4 °C 8.8 °C 1016.8 hPa Calm     57 % 0.0 mm 0.0 W/m2 CLR
04:13 17.4 °C 8.8 °C 1016.8 hPa Calm     57 % 0.0 mm 0.0 W/m2 CLR
04:18 17.2 °C 8.6 °C 1016.8 hPa Calm     57 % 0.0 mm 0.0 W/m2 CLR
04:28 17.1 °C 8.8 °C 1016.8 hPa WSW 3.7 km/h   58 % 0.0 mm 0.0 W/m2 CLR
04:33 17.2 °C 8.8 °C 1016.5 hPa Calm     58 % 0.0 mm 0.0 W/m2 CLR
04:38 17.2 °C 8.8 °C 1016.8 hPa Calm     58 % 0.0 mm 0.0 W/m2 CLR
04:43 17.1 °C 8.7 °C 1016.8 hPa Calm     58 % 0.0 mm 0.0 W/m2 CLR
04:48 16.9 °C 8.6 °C 1016.8 hPa Calm     58 % 0.0 mm 0.0 W/m2 CLR
04:54 16.8 °C 8.7 °C 1016.8 hPa Calm     59 % 0.0 mm 0.0 W/m2 CLR
04:59 16.6 °C 8.6 °C 1016.8 hPa Calm     59 % 0.0 mm 0.0 W/m2 CLR
05:04 16.6 °C 8.5 °C 1016.8 hPa Calm     59 % 0.0 mm 0.0 W/m2 CLR
05:09 16.4 °C 8.7 °C 1016.8 hPa Calm     60 % 0.0 mm 0.0 W/m2 CLR
05:16 16.4 °C 8.8 °C 1016.8 hPa Calm     61 % 0.0 mm 0.0 W/m2 CLR
05:18 16.4 °C 8.6 °C 1016.8 hPa Calm     60 % 0.0 mm 0.0 W/m2 CLR
05:21 16.3 °C 8.8 °C 1016.8 hPa Calm     61 % 0.0 mm 0.0 W/m2 CLR
05:27 16.2 °C 8.7 °C 1016.8 hPa Calm     61 % 0.0 mm 0.0 W/m2 CLR
05:32 16.2 °C 8.6 °C 1016.8 hPa Calm     61 % 0.0 mm 0.0 W/m2 CLR
05:37 16.1 °C 8.6 °C 1016.8 hPa Calm     61 % 0.0 mm 0.0 W/m2 CLR
05:42 16.1 °C 8.6 °C 1016.8 hPa Calm     61 % 0.0 mm 0.0 W/m2 CLR
05:47 15.9 °C 8.7 °C 1016.8 hPa Calm     62 % 0.0 mm 0.0 W/m2 CLR
05:52 15.8 °C 8.5 °C 1016.8 hPa Calm     62 % 0.0 mm 0.0 W/m2 CLR
05:57 15.8 °C 8.5 °C 1016.5 hPa Calm     62 % 0.0 mm 0.0 W/m2 CLR
06:02 15.8 °C 9.1 °C 1016.5 hPa Calm     64 % 0.0 mm 0.0 W/m2 CLR
06:07 15.8 °C 9.1 °C 1016.5 hPa Calm     64 % 0.0 mm 0.0 W/m2 CLR
06:12 15.8 °C 9.0 °C 1016.8 hPa Calm     64 % 0.0 mm 0.0 W/m2 CLR
06:17 15.7 °C 8.9 °C 1016.5 hPa Calm     64 % 0.0 mm 0.0 W/m2 CLR
06:22 15.7 °C 8.9 °C 1016.8 hPa Calm     64 % 0.0 mm 0.0 W/m2 CLR
06:27 15.7 °C 8.9 °C 1016.5 hPa Calm     64 % 0.0 mm 0.0 W/m2 CLR
06:32 15.8 °C 9.1 °C 1016.5 hPa Calm     64 % 0.0 mm 0.0 W/m2 CLR
06:37 15.9 °C 9.1 °C 1016.8 hPa Calm     64 % 0.0 mm 0.0 W/m2 CLR
06:42 15.9 °C 9.1 °C 1016.5 hPa Calm     64 % 0.0 mm 0.0 W/m2 CLR
06:47 15.9 °C 8.8 °C 1016.5 hPa Calm     63 % 0.0 mm 0.0 W/m2 CLR
06:52 15.9 °C 8.9 °C 1016.5 hPa Calm     63 % 0.0 mm 0.0 W/m2 CLR
06:57 16.0 °C 8.9 °C 1016.5 hPa Calm     63 % 0.0 mm 0.0 W/m2 CLR
07:02 16.1 °C 9.0 °C 1016.5 hPa Calm     63 % 0.0 mm 0.0 W/m2 OVC
07:07 16.2 °C 9.3 °C 1016.8 hPa Calm     64 % 0.0 mm 0.0 W/m2 OVC
07:12 16.2 °C 9.3 °C 1016.5 hPa Calm     64 % 0.0 mm 0.0 W/m2 OVC
07:17 16.2 °C 9.2 °C 1016.5 hPa Calm     63 % 0.0 mm 7.0 W/m2 BKN
07:22 16.2 °C 9.2 °C 1016.8 hPa Calm     63 % 0.0 mm 9.0 W/m2 BKN
07:27 16.3 °C 9.3 °C 1016.8 hPa Calm     63 % 0.0 mm 12.0 W/m2 BKN
07:32 16.3 °C 9.1 °C 1016.8 hPa Calm     62 % 0.0 mm 21.0 W/m2 BKN
07:37 16.4 °C 9.1 °C 1016.8 hPa Calm     62 % 0.0 mm 26.0 W/m2 BKN
07:42 16.6 °C 9.2 °C 1016.8 hPa Calm     62 % 0.0 mm 33.0 W/m2 BKN
07:47 16.7 °C 9.4 °C 1016.8 hPa Calm     62 % 0.0 mm 35.0 W/m2 BKN
07:48 16.7 °C 9.4 °C 1016.8 hPa Calm     62 % 0.0 mm 37.0 W/m2 BKN
07:53 16.9 °C 9.4 °C 1016.8 hPa Calm     61 % 0.0 mm 39.0 W/m2 BKN
07:58 17.1 °C 9.3 °C 1016.8 hPa WNW 5.6 km/h 5.6 km/h 60 % 0.0 mm 49.0 W/m2 SCT
08:03 17.2 °C 9.4 °C 1016.8 hPa WNW 3.7 km/h 3.7 km/h 60 % 0.0 mm 53.0 W/m2 SCT
08:08 17.3 °C 9.4 °C 1016.8 hPa WNW 3.7 km/h 3.7 km/h 60 % 0.0 mm 58.0 W/m2 SCT
08:13 17.3 °C 9.2 °C 1016.8 hPa NW 5.6 km/h 5.6 km/h 59 % 0.0 mm 69.0 W/m2 SCT
08:18 17.3 °C 9.2 °C 1016.8 hPa WNW 5.6 km/h 5.6 km/h 59 % 0.0 mm 79.0 W/m2 FEW
08:23 17.3 °C 9.2 °C 1016.8 hPa West 5.6 km/h 5.6 km/h 59 % 0.0 mm 100.0 W/m2 FEW
08:28 17.4 °C 9.3 °C 1016.8 hPa West 5.6 km/h 5.6 km/h 59 % 0.0 mm 111.0 W/m2 CLR
08:33 17.4 °C 9.3 °C 1016.8 hPa Calm     59 % 0.0 mm 114.0 W/m2 CLR
08:38 17.6 °C 9.4 °C 1016.8 hPa West 9.3 km/h 9.3 km/h 59 % 0.0 mm 109.0 W/m2 CLR
08:43 17.6 °C 9.4 °C 1016.8 hPa West 5.6 km/h 5.6 km/h 59 % 0.0 mm 120.0 W/m2 CLR
08:48 17.7 °C 9.3 °C 1016.8 hPa WNW 9.7 km/h 9.7 km/h 58 % 0.0 mm 130.0 W/m2 CLR
08:53 17.7 °C 9.6 °C 1016.8 hPa WNW 7.4 km/h 7.4 km/h 59 % 0.0 mm 153.0 W/m2 CLR
08:58 17.9 °C 9.5 °C 1016.8 hPa West 9.3 km/h 9.3 km/h 58 % 0.0 mm 158.0 W/m2 CLR
09:03 18.0 °C 9.6 °C 1017.2 hPa West 7.4 km/h 7.4 km/h 58 % 0.0 mm 195.0 W/m2 CLR
09:08 18.2 °C 9.5 °C 1016.8 hPa West 5.6 km/h 5.6 km/h 57 % 0.0 mm 234.0 W/m2 CLR
09:13 18.2 °C 9.6 °C 1017.2 hPa NW 14.8 km/h 14.8 km/h 57 % 0.0 mm 202.0 W/m2 CLR
09:18 18.2 °C 9.5 °C 1017.2 hPa WNW 18.5 km/h 18.5 km/h 57 % 0.0 mm 320.0 W/m2 CLR
09:23 18.1 °C 9.7 °C 1017.2 hPa NW 19.3 km/h 19.3 km/h 58 % 0.0 mm 239.0 W/m2 CLR
09:28 18.1 °C 9.7 °C 1017.2 hPa WNW 17.7 km/h 17.7 km/h 58 % 0.0 mm 221.0 W/m2 CLR
09:33 18.2 °C 9.8 °C 1017.2 hPa WNW 14.8 km/h 14.8 km/h 58 % 0.0 mm 216.0 W/m2 CLR
09:38 18.2 °C 9.6 °C 1017.2 hPa NW 14.8 km/h 14.8 km/h 57 % 0.0 mm 190.0 W/m2 CLR
09:43 18.3 °C 9.9 °C 1017.2 hPa WNW 11.1 km/h 11.1 km/h 58 % 0.0 mm 260.0 W/m2 CLR
09:48 18.4 °C 9.7 °C 1017.2 hPa Calm     57 % 0.0 mm 253.0 W/m2 CLR
09:53 18.6 °C 9.9 °C 1017.2 hPa WNW 13.0 km/h 13.0 km/h 57 % 0.0 mm 206.0 W/m2 CLR
09:58 18.5 °C 9.6 °C 1017.2 hPa NW 18.5 km/h 18.5 km/h 56 % 0.0 mm 207.0 W/m2 CLR
10:03 18.4 °C 9.8 °C 1017.2 hPa NW 18.5 km/h 18.5 km/h 57 % 0.0 mm 197.0 W/m2 CLR
10:08 18.5 °C 9.8 °C 1017.2 hPa NW 18.5 km/h 18.5 km/h 57 % 0.0 mm 220.0 W/m2 CLR
10:13 18.6 °C 9.6 °C 1017.2 hPa Calm     56 % 0.0 mm 206.0 W/m2 CLR
10:18 18.6 °C 9.6 °C 1017.2 hPa NW 13.0 km/h 13.0 km/h 56 % 0.0 mm 230.0 W/m2 CLR
10:23 18.6 °C 9.7 °C 1017.2 hPa WNW 14.8 km/h 14.8 km/h 56 % 0.0 mm 213.0 W/m2 CLR
10:28 18.7 °C 9.8 °C 1017.2 hPa West 16.7 km/h 16.7 km/h 56 % 0.0 mm 213.0 W/m2 CLR
10:33 18.8 °C 9.8 °C 1017.5 hPa NW 18.5 km/h 18.5 km/h 56 % 0.0 mm 269.0 W/m2 CLR
10:38 19.0 °C 10.0 °C 1017.5 hPa WNW 16.7 km/h 16.7 km/h 56 % 0.0 mm 302.0 W/m2 CLR
10:43 19.1 °C 9.8 °C 1017.5 hPa WNW 9.3 km/h 9.3 km/h 55 % 0.0 mm 427.0 W/m2 CLR
10:48 19.1 °C 9.8 °C 1017.2 hPa West 3.7 km/h   55 % 0.0 mm 283.0 W/m2 CLR
10:53 19.1 °C 10.1 °C 1017.5 hPa WNW 20.4 km/h 20.4 km/h 56 % 0.0 mm 265.0 W/m2 CLR
10:58 19.4 °C 9.9 °C 1017.5 hPa NW 16.1 km/h 16.1 km/h 54 % 0.0 mm 323.0 W/m2 CLR
11:03 19.4 °C 9.6 °C 1017.5 hPa WNW 14.8 km/h 14.8 km/h 53 % 0.0 mm 385.0 W/m2 CLR
11:08 19.5 °C 9.9 °C 1017.5 hPa WNW 16.7 km/h 16.7 km/h 54 % 0.0 mm 241.0 W/m2 CLR
11:13 19.5 °C 9.9 °C 1017.2 hPa NW 6.4 km/h 6.4 km/h 54 % 0.0 mm 290.0 W/m2 CLR
11:18 19.7 °C 10.1 °C 1017.2 hPa WNW 13.0 km/h 13.0 km/h 54 % 0.0 mm 283.0 W/m2 CLR
11:23 19.9 °C 10.0 °C 1017.2 hPa NW 16.7 km/h 16.7 km/h 53 % 0.0 mm 492.0 W/m2 CLR
11:28 20.0 °C 9.8 °C 1017.2 hPa NNW 14.8 km/h 14.8 km/h 52 % 0.0 mm 225.0 W/m2 CLR
11:33 20.0 °C 9.8 °C 1017.2 hPa NW 16.7 km/h 16.7 km/h 52 % 0.0 mm 134.0 W/m2 CLR
11:38 19.9 °C 10.0 °C 1017.5 hPa NW 13.0 km/h 13.0 km/h 53 % 0.0 mm 107.0 W/m2 CLR
11:43 19.8 °C 9.9 °C 1017.2 hPa WNW 14.8 km/h 14.8 km/h 53 % 0.0 mm 181.0 W/m2 CLR
11:48 19.7 °C 9.8 °C 1017.2 hPa WNW 11.3 km/h 11.3 km/h 53 % 0.0 mm 318.0 W/m2 CLR
11:53 19.8 °C 9.9 °C 1017.2 hPa NW 1.9 km/h   53 % 0.0 mm 345.0 W/m2 CLR
11:58 20.1 °C 10.2 °C 1017.2 hPa Calm     53 % 0.0 mm 308.0 W/m2 CLR
12:03 20.2 °C 10.0 °C 1017.2 hPa WNW 5.6 km/h 5.6 km/h 52 % 0.0 mm 243.0 W/m2 CLR
12:08 20.1 °C 9.9 °C 1017.2 hPa Calm     52 % 0.0 mm 220.0 W/m2 CLR
12:13 20.1 °C 9.9 °C 1017.2 hPa West 3.7 km/h 3.7 km/h 52 % 0.0 mm 214.0 W/m2 CLR
12:18 20.0 °C 9.8 °C 1017.2 hPa West 3.7 km/h   52 % 0.0 mm 183.0 W/m2 CLR
12:23 20.0 °C 9.8 °C 1017.2 hPa Calm     52 % 0.0 mm 181.0 W/m2 CLR
12:28 20.1 °C 9.9 °C 1017.2 hPa Calm     52 % 0.0 mm 251.0 W/m2 CLR
12:33 20.3 °C 9.8 °C 1017.2 hPa NW 13.0 km/h 13.0 km/h 51 % 0.0 mm 411.0 W/m2 CLR
12:38 20.5 °C 10.0 °C 1017.2 hPa WNW 5.6 km/h 5.6 km/h 51 % 0.0 mm 229.0 W/m2 CLR
12:43 20.5 °C 10.0 °C 1017.2 hPa NNW 18.5 km/h 18.5 km/h 51 % 0.0 mm 199.0 W/m2 CLR
12:48 20.5 °C 10.0 °C 1017.2 hPa NNW 20.4 km/h 20.4 km/h 51 % 0.0 mm 241.0 W/m2 CLR
12:53 20.4 °C 9.9 °C 1017.5 hPa Calm     51 % 0.0 mm 209.0 W/m2 CLR
12:58 20.5 °C 10.0 °C 1017.5 hPa WNW 13.0 km/h 13.0 km/h 51 % 0.0 mm 216.0 W/m2 CLR
13:03 20.6 °C 10.1 °C 1017.5 hPa NW 14.8 km/h 14.8 km/h 51 % 0.0 mm 213.0 W/m2 CLR
13:08 20.6 °C 10.1 °C 1017.5 hPa NW 7.4 km/h   51 % 0.0 mm 225.0 W/m2 CLR
13:13 20.6 °C 10.4 °C 1017.5 hPa NW 11.1 km/h 11.1 km/h 52 % 0.0 mm 374.0 W/m2 CLR
13:18 20.9 °C 10.4 °C 1017.2 hPa NW 12.9 km/h 12.9 km/h 51 % 0.0 mm 494.0 W/m2 CLR
13:23 21.3 °C 10.2 °C 1017.2 hPa North 14.8 km/h 14.8 km/h 49 % 0.0 mm 497.0 W/m2 CLR
13:28 21.3 °C 10.5 °C 1017.2 hPa NW 11.1 km/h 11.1 km/h 50 % 0.0 mm 469.0 W/m2 CLR
13:29 21.3 °C 10.5 °C 1017.2 hPa WNW 16.7 km/h 16.7 km/h 50 % 0.0 mm 469.0 W/m2 CLR
13:34 21.3 °C 10.4 °C 1017.2 hPa NW 5.6 km/h 5.6 km/h 50 % 0.0 mm 237.0 W/m2 CLR
13:39 21.3 °C 10.4 °C 1016.8 hPa Calm   0.2 km/h 50 % 0.0 mm 364.0 W/m2 CLR
13:44 21.7 °C 10.8 °C 1016.8 hPa WNW 12.9 km/h 12.9 km/h 50 % 0.0 mm 1093.0 W/m2 CLR
13:49 22.0 °C 10.5 °C 1016.8 hPa West 14.5 km/h 14.5 km/h 48 % 0.0 mm 397.0 W/m2 CLR
13:54 21.9 °C 10.1 °C 1016.8 hPa NNW 16.7 km/h 16.7 km/h 47 % 0.0 mm 874.0 W/m2 CLR
13:59 21.9 °C 10.4 °C 1016.8 hPa Calm     48 % 0.0 mm 403.0 W/m2 CLR
14:04 22.0 °C 10.5 °C 1016.8 hPa NNW 16.7 km/h 16.7 km/h 48 % 0.0 mm 424.0 W/m2 CLR
14:09 22.2 °C 11.0 °C 1016.8 hPa WNW 16.7 km/h 16.7 km/h 49 % 0.0 mm 1121.0 W/m2 CLR
14:14 22.9 °C 11.0 °C 1016.8 hPa WNW 18.5 km/h 18.5 km/h 47 % 0.0 mm 1090.0 W/m2 CLR
14:19 23.1 °C 11.1 °C 1016.5 hPa NW 14.5 km/h 14.5 km/h 47 % 0.0 mm 1060.0 W/m2 CLR
14:24 23.1 °C 10.8 °C 1016.5 hPa NNW 3.7 km/h 3.7 km/h 46 % 0.0 mm 390.0 W/m2 CLR
14:29 22.9 °C 11.0 °C 1016.5 hPa NW 8.0 km/h 8.0 km/h 47 % 0.0 mm 598.0 W/m2 CLR
14:34 23.0 °C 11.1 °C 1016.5 hPa Calm     47 % 0.0 mm 954.0 W/m2 CLR
14:39 23.1 °C 10.8 °C 1016.5 hPa Calm     46 % 0.0 mm 214.0 W/m2 CLR
14:44 23.0 °C 10.8 °C 1016.5 hPa WNW 20.4 km/h 20.4 km/h 46 % 0.0 mm 367.0 W/m2 CLR
14:49 22.9 °C 10.7 °C 1016.5 hPa NNW 16.7 km/h 16.7 km/h 46 % 0.0 mm 396.0 W/m2 CLR
14:54 23.2 °C 10.9 °C 1016.5 hPa NW 16.7 km/h 16.7 km/h 46 % 0.0 mm 396.0 W/m2 CLR
14:59 23.4 °C 11.1 °C 1016.5 hPa WNW 5.6 km/h 5.6 km/h 46 % 0.0 mm 529.0 W/m2 CLR
15:04 23.4 °C 10.8 °C 1016.5 hPa Calm     45 % 0.0 mm 271.0 W/m2 CLR
15:09 23.3 °C 10.7 °C 1016.5 hPa NNW 20.4 km/h 20.4 km/h 45 % 0.0 mm 241.0 W/m2 CLR
15:14 23.2 °C 10.6 °C 1016.5 hPa NNW 14.8 km/h 14.8 km/h 45 % 0.0 mm 223.0 W/m2 CLR
15:19 23.0 °C 10.4 °C 1016.8 hPa NW 14.8 km/h 14.8 km/h 45 % 0.0 mm 167.0 W/m2 CLR
15:24 22.8 °C 10.6 °C 1016.8 hPa NNW 13.0 km/h 13.0 km/h 46 % 0.0 mm 158.0 W/m2 CLR
15:29 22.7 °C 10.5 °C 1016.8 hPa Calm     46 % 0.0 mm 162.0 W/m2 CLR
15:34 22.6 °C 10.4 °C 1016.8 hPa West 5.6 km/h 5.6 km/h 46 % 0.0 mm 239.0 W/m2 CLR
15:39 22.6 °C 10.4 °C 1016.8 hPa Calm     46 % 0.0 mm 199.0 W/m2 CLR
15:44 22.6 °C 10.4 °C 1016.8 hPa NW 1.6 km/h 2.4 km/h 46 % 0.0 mm 141.0 W/m2 CLR
15:49 22.6 °C 10.3 °C 1016.8 hPa NW 6.4 km/h 6.4 km/h 46 % 0.0 mm 121.0 W/m2 CLR
15:54 22.4 °C 10.2 °C 1016.8 hPa WNW 5.6 km/h 5.6 km/h 46 % 0.0 mm 137.0 W/m2 CLR
15:59 22.3 °C 10.2 °C 1016.5 hPa Calm     46 % 0.0 mm 204.0 W/m2 CLR
16:04 22.5 °C 10.3 °C 1016.5 hPa Calm     46 % 0.0 mm 209.0 W/m2 CLR
16:09 22.6 °C 10.4 °C 1016.5 hPa WNW 5.6 km/h 5.6 km/h 46 % 0.0 mm 193.0 W/m2 CLR
16:14 22.6 °C 10.3 °C 1016.5 hPa Calm     46 % 0.0 mm 227.0 W/m2 CLR
16:15 22.6 °C 10.3 °C 1016.5 hPa Calm     46 % 0.0 mm 227.0 W/m2 CLR
16:20 22.6 °C 10.1 °C 1016.5 hPa Calm     45 % 0.0 mm 230.0 W/m2 CLR
16:25 22.7 °C 10.5 °C 1016.5 hPa North 3.7 km/h   46 % 0.0 mm 207.0 W/m2 CLR
16:30 22.8 °C 10.2 °C 1016.5 hPa Calm     45 % 0.0 mm 128.0 W/m2 CLR
16:35 22.9 °C 10.4 °C 1016.5 hPa Calm     45 % 0.0 mm 104.0 W/m2 CLR
16:40 22.9 °C 10.3 °C 1016.5 hPa SW 4.8 km/h 4.8 km/h 45 % 0.0 mm 91.0 W/m2 CLR
16:45 22.8 °C 10.2 °C 1016.5 hPa West 9.7 km/h 9.7 km/h 45 % 0.0 mm 88.0 W/m2 CLR
16:50 22.8 °C 10.2 °C 1016.5 hPa NW 13.0 km/h 13.0 km/h 45 % 0.0 mm 88.0 W/m2 CLR
16:55 22.8 °C 10.3 °C 1016.5 hPa NNW 9.3 km/h 9.3 km/h 45 % 0.0 mm 67.0 W/m2 FEW
17:00 22.8 °C 10.2 °C 1016.5 hPa WNW 5.6 km/h 5.6 km/h 45 % 0.0 mm 63.0 W/m2 FEW
17:05 22.8 °C 10.3 °C 1016.5 hPa NNW 11.1 km/h 11.1 km/h 45 % 0.0 mm 60.0 W/m2 SCT
17:10 22.8 °C 10.2 °C 1016.8 hPa NNW 19.3 km/h 19.3 km/h 45 % 0.0 mm 54.0 W/m2 SCT
17:15 22.7 °C 10.2 °C 1016.8 hPa NNW 16.7 km/h 16.7 km/h 45 % 0.0 mm 53.0 W/m2 SCT
17:20 22.5 °C 10.3 °C 1016.8 hPa NNW 24.1 km/h 24.1 km/h 46 % 0.0 mm 76.0 W/m2 SCT
17:25 22.3 °C 10.2 °C 1016.8 hPa North 24.1 km/h 24.1 km/h 46 % 0.0 mm 220.0 W/m2 FEW
17:30 22.3 °C 10.4 °C 1016.8 hPa NNW 22.2 km/h 22.2 km/h 47 % 0.0 mm 158.0 W/m2 CLR
17:35 22.4 °C 10.6 °C 1016.8 hPa North 27.4 km/h 27.4 km/h 47 % 0.0 mm 134.0 W/m2 CLR
17:40 22.2 °C 10.7 °C 1017.2 hPa NNW 29.6 km/h 29.6 km/h 48 % 0.0 mm 160.0 W/m2 CLR
17:45 22.1 °C 10.6 °C 1017.2 hPa NNW 24.1 km/h 24.1 km/h 48 % 0.0 mm 178.0 W/m2 CLR
17:50 21.9 °C 10.4 °C 1017.2 hPa North 20.4 km/h 20.4 km/h 48 % 0.0 mm 165.0 W/m2 CLR
17:55 21.9 °C 10.7 °C 1017.2 hPa NW 18.5 km/h 18.5 km/h 49 % 0.0 mm 149.0 W/m2 CLR
18:00 21.9 °C 10.4 °C 1017.2 hPa NW 29.6 km/h 29.6 km/h 48 % 0.0 mm 148.0 W/m2 CLR
18:01 21.9 °C 10.4 °C 1017.2 hPa NNW 29.6 km/h 29.6 km/h 48 % 0.0 mm 128.0 W/m2 CLR
18:06 21.8 °C 10.3 °C 1017.2 hPa NNW 20.4 km/h 20.4 km/h 48 % 0.0 mm 105.0 W/m2 CLR
18:11 21.7 °C 10.2 °C 1017.2 hPa North 29.6 km/h 29.6 km/h 48 % 0.0 mm 83.0 W/m2 CLR
18:16 21.5 °C 10.0 °C 1017.2 hPa NNW 29.6 km/h 29.6 km/h 48 % 0.0 mm 95.0 W/m2 CLR
18:21 21.3 °C 10.2 °C 1017.2 hPa NW 29.6 km/h 29.6 km/h 49 % 0.0 mm 79.0 W/m2 CLR
18:26 21.2 °C 10.1 °C 1017.2 hPa NNW 29.6 km/h 29.6 km/h 49 % 0.0 mm 90.0 W/m2 CLR
18:31 21.2 °C 10.1 °C 1017.2 hPa NNW 18.5 km/h 18.5 km/h 49 % 0.0 mm 84.0 W/m2 FEW
18:36 21.3 °C 10.2 °C 1017.5 hPa NW 20.9 km/h 20.9 km/h 49 % 0.0 mm 93.0 W/m2 CLR
18:41 21.1 °C 10.3 °C 1017.5 hPa North 32.2 km/h 32.2 km/h 50 % 0.0 mm 72.0 W/m2 CLR
18:46 20.8 °C 10.6 °C 1017.5 hPa NNW 25.9 km/h 25.9 km/h 52 % 0.0 mm 49.0 W/m2 FEW
18:51 20.6 °C 10.4 °C 1017.5 hPa NNW 33.8 km/h 33.8 km/h 52 % 0.0 mm 37.0 W/m2 SCT
18:56 20.4 °C 10.2 °C 1017.8 hPa NNW 33.3 km/h 33.3 km/h 52 % 0.0 mm 33.0 W/m2 BKN
19:01 20.3 °C 10.2 °C 1017.8 hPa NW 33.8 km/h 33.8 km/h 52 % 0.0 mm 32.0 W/m2 BKN
19:06 20.2 °C 10.3 °C 1017.8 hPa NW 29.6 km/h 29.6 km/h 53 % 0.0 mm 33.0 W/m2 BKN
19:11 20.2 °C 10.3 °C 1017.8 hPa North 29.6 km/h 29.6 km/h 53 % 0.0 mm 35.0 W/m2 BKN
19:16 20.0 °C 10.4 °C 1017.8 hPa WNW 31.5 km/h 31.5 km/h 54 % 0.0 mm 37.0 W/m2 BKN
19:21 19.8 °C 10.2 °C 1018.2 hPa NNW 31.5 km/h 31.5 km/h 54 % 0.0 mm 53.0 W/m2 BKN
19:26 19.6 °C 10.3 °C 1018.5 hPa NNW 27.8 km/h 27.8 km/h 55 % 0.0 mm 37.0 W/m2 SCT
19:28 19.6 °C 10.3 °C 1018.5 hPa NW 37.0 km/h 37.0 km/h 55 % 0.0 mm 39.0 W/m2 SCT
19:33 19.3 °C 10.6 °C 1018.5 hPa NW 38.9 km/h 38.9 km/h 57 % 0.0 mm 26.0 W/m2 BKN
19:38 19.1 °C 10.6 °C 1018.5 hPa NNW 25.9 km/h 25.9 km/h 58 % 0.0 mm 14.0 W/m2 BKN
19:43 18.8 °C 10.4 °C 1018.5 hPa NW 31.5 km/h 31.5 km/h 58 % 0.0 mm 25.0 W/m2 BKN
19:48 18.6 °C 10.4 °C 1018.5 hPa North 25.9 km/h 25.9 km/h 59 % 0.0 mm 19.0 W/m2 BKN
19:53 18.6 °C 10.4 °C 1018.5 hPa NNE 18.5 km/h 18.5 km/h 59 % 0.0 mm 14.0 W/m2 BKN
19:58 18.4 °C 10.3 °C 1018.5 hPa NNW 25.9 km/h 25.9 km/h 59 % 0.0 mm 11.0 W/m2 BKN
20:03 18.4 °C 10.2 °C 1018.5 hPa NNW 18.5 km/h 18.5 km/h 59 % 0.0 mm 11.0 W/m2 BKN
20:08 18.4 °C 10.2 °C 1018.8 hPa NNW 27.8 km/h 27.8 km/h 59 % 0.0 mm 11.0 W/m2 BKN
20:13 18.3 °C 10.6 °C 1018.8 hPa NNW 25.9 km/h 25.9 km/h 61 % 0.0 mm 7.0 W/m2 BKN
20:18 18.1 °C 10.7 °C 1019.2 hPa NNW 22.2 km/h 22.2 km/h 62 % 0.0 mm 5.0 W/m2 OVC
20:23 18.1 °C 10.4 °C 1018.8 hPa NNW 20.4 km/h 20.4 km/h 61 % 0.0 mm 5.0 W/m2 OVC
20:28 18.1 °C 10.4 °C 1019.2 hPa NW 27.8 km/h 27.8 km/h 61 % 0.0 mm 5.0 W/m2 OVC
20:33 18.1 °C 10.2 °C 1019.2 hPa NW 31.5 km/h 31.5 km/h 60 % 0.0 mm 5.0 W/m2 OVC
20:38 18.1 °C 10.2 °C 1019.2 hPa NW 27.8 km/h 27.8 km/h 60 % 0.0 mm 5.0 W/m2 OVC
20:43 18.1 °C 10.2 °C 1019.2 hPa WNW 27.8 km/h 27.8 km/h 60 % 0.0 mm 5.0 W/m2 OVC
20:48 18.1 °C 10.2 °C 1019.2 hPa WNW 20.4 km/h 20.4 km/h 60 % 0.0 mm 0.0 W/m2 OVC
20:53 18.1 °C 10.2 °C 1019.2 hPa WNW 20.4 km/h 20.4 km/h 60 % 0.0 mm 0.0 W/m2 OVC
20:59 18.1 °C 9.9 °C 1019.2 hPa NW 22.2 km/h 22.2 km/h 59 % 0.0 mm 0.0 W/m2 OVC
21:04 18.1 °C 9.9 °C 1019.2 hPa WNW 20.4 km/h 20.4 km/h 59 % 0.0 mm 0.0 W/m2 OVC
21:09 18.1 °C 9.7 °C 1019.2 hPa WNW 18.5 km/h 18.5 km/h 58 % 0.0 mm 0.0 W/m2 OVC
21:14 18.2 °C 9.8 °C 1019.2 hPa WNW 18.5 km/h 18.5 km/h 58 % 0.0 mm 0.0 W/m2 OVC
21:19 18.2 °C 9.6 °C 1019.2 hPa West 18.5 km/h 18.5 km/h 57 % 0.0 mm 0.0 W/m2 CLR
21:24 18.3 °C 9.6 °C 1019.2 hPa WNW 22.2 km/h 22.2 km/h 57 % 0.0 mm 0.0 W/m2 CLR
21:29 18.4 °C 9.4 °C 1019.5 hPa WNW 20.4 km/h 20.4 km/h 56 % 0.0 mm 0.0 W/m2 CLR
21:34 18.4 °C 9.4 °C 1019.5 hPa WNW 18.5 km/h 18.5 km/h 56 % 0.0 mm 0.0 W/m2 CLR
21:39 18.4 °C 9.2 °C 1019.5 hPa WNW 20.4 km/h 20.4 km/h 55 % 0.0 mm 0.0 W/m2 CLR
21:44 18.4 °C 9.2 °C 1019.9 hPa WNW 20.4 km/h 20.4 km/h 55 % 0.0 mm 0.0 W/m2 CLR
21:49 18.4 °C 9.2 °C 1019.5 hPa WNW 18.5 km/h 18.5 km/h 55 % 0.0 mm 0.0 W/m2 CLR
21:54 18.4 °C 9.2 °C 1019.9 hPa NW 19.3 km/h 19.3 km/h 55 % 0.0 mm 0.0 W/m2 CLR
21:59 18.4 °C 8.9 °C 1020.2 hPa WNW 25.9 km/h 25.9 km/h 54 % 0.0 mm 0.0 W/m2 CLR
22:04 18.3 °C 8.8 °C 1020.2 hPa WNW 20.9 km/h 20.9 km/h 54 % 0.0 mm 0.0 W/m2 CLR
22:09 18.3 °C 9.1 °C 1020.2 hPa NW 18.5 km/h 18.5 km/h 55 % 0.0 mm 0.0 W/m2 CLR
22:14 18.2 °C 9.0 °C 1020.2 hPa WNW 18.5 km/h 18.5 km/h 55 % 0.0 mm 0.0 W/m2 CLR
22:19 18.2 °C 9.2 °C 1020.5 hPa West 16.7 km/h 16.7 km/h 56 % 0.0 mm 0.0 W/m2 CLR
22:24 18.2 °C 9.0 °C 1020.5 hPa WNW 12.9 km/h 12.9 km/h 55 % 0.0 mm 0.0 W/m2 CLR
22:29 18.2 °C 9.0 °C 1020.5 hPa West 16.7 km/h 16.7 km/h 55 % 0.0 mm 0.0 W/m2 CLR
22:34 18.3 °C 8.8 °C 1020.5 hPa West 16.7 km/h 16.7 km/h 54 % 0.0 mm 0.0 W/m2 CLR
22:39 18.4 °C 8.9 °C 1020.5 hPa West 16.7 km/h 16.7 km/h 54 % 0.0 mm 0.0 W/m2 CLR
22:44 18.4 °C 8.6 °C 1020.9 hPa WNW 16.7 km/h 16.7 km/h 53 % 0.0 mm 0.0 W/m2 CLR
22:49 18.4 °C 8.6 °C 1020.9 hPa WNW 24.1 km/h 24.1 km/h 53 % 0.0 mm 0.0 W/m2 CLR
22:54 18.4 °C 8.6 °C 1021.2 hPa NW 27.8 km/h 27.8 km/h 53 % 0.0 mm 0.0 W/m2 CLR
22:59 18.4 °C 8.6 °C 1021.2 hPa NW 18.5 km/h 18.5 km/h 53 % 0.0 mm 0.0 W/m2 CLR
23:04 18.3 °C 8.6 °C 1021.2 hPa NW 22.2 km/h 22.2 km/h 53 % 0.0 mm 0.0 W/m2 CLR
23:09 18.3 °C 8.6 °C 1021.2 hPa NW 22.2 km/h 22.2 km/h 53 % 0.0 mm 0.0 W/m2 CLR
23:14 18.3 °C 8.6 °C 1021.6 hPa NW 25.7 km/h 25.7 km/h 53 % 0.0 mm 0.0 W/m2 CLR
23:19 18.2 °C 8.4 °C 1021.6 hPa NW 20.4 km/h 20.4 km/h 53 % 0.0 mm 0.0 W/m2 CLR
23:24 18.0 °C 8.8 °C 1021.6 hPa NW 31.5 km/h 31.5 km/h 55 % 0.0 mm 0.0 W/m2 CLR
23:29 17.2 °C 10.3 °C 1021.6 hPa NNW 25.7 km/h 25.7 km/h 64 % 0.3 mm 0.0 W/m2 RA
23:34 16.2 °C 10.9 °C 1021.6 hPa West 16.7 km/h 16.7 km/h 71 % 0.8 mm 0.0 W/m2 RA
23:39 15.8 °C 10.7 °C 1021.6 hPa NW 13.0 km/h 13.0 km/h 72 % 0.8 mm 0.0 W/m2
23:44 15.7 °C 10.5 °C 1021.6 hPa WNW 18.5 km/h 18.5 km/h 71 % 0.8 mm 0.0 W/m2 CLR
23:49 15.8 °C 10.7 °C 1021.6 hPa WNW 14.8 km/h 14.8 km/h 72 % 0.8 mm 0.0 W/m2 CLR
23:54 15.8 °C 10.2 °C 1021.6 hPa NW 20.4 km/h 20.4 km/h 69 % 0.8 mm 0.0 W/m2 CLR
23:59 15.9 °C 10.1 °C 1021.6 hPa WNW 16.7 km/h 16.7 km/h 68 % 0.8 mm 0.0 W/m2 CLR
Lo Temps de Massalio
Compliments of Weather Underground - 1.25 mb